TimeMST,TemperatureF,Dew PointF,Humidity,Sea Level PressureIn,VisibilityMPH,Wind Direction,Wind SpeedMPH,Gust SpeedMPH,PrecipitationIn,Events,Conditions,WindDirDegrees,DateUTC
12:00 AM,-7.4,-13.2,76,30.56,-9999.0,North,28.8,-,N/A,,Unknown,0,2013-01-21 07:00:00
1:00 AM,-7.4,-13.0,77,30.54,-9999.0,North,16.1,-,N/A,,Unknown,0,2013-01-21 08:00:00
2:00 AM,-7.4,-13.5,75,30.51,-9999.0,North,32.2,-,N/A,,Unknown,0,2013-01-21 09:00:00
3:00 AM,-7.2,-12.6,77,30.49,-9999.0,North,35.7,-,N/A,,Unknown,0,2013-01-21 10:00:00
4:00 AM,-7.6,-12.3,80,30.47,-9999.0,North,34.5,-,N/A,,Unknown,0,2013-01-21 11:00:00
5:00 AM,-8,-12,72,30.45,,Calm,Calm,,,,,300,2013-01-21 12:00:00
5:00 AM,-7.6,-12.3,80,30.45,-9999.0,North,34.5,-,N/A,,Unknown,0,2013-01-21 12:00:00
6:00 AM,-7.8,-12.3,81,30.42,-9999.0,North,38.0,-,N/A,,Unknown,0,2013-01-21 13:00:00
7:00 AM,-7.6,-12.1,81,30.40,-9999.0,North,38.0,-,N/A,,Unknown,0,2013-01-21 14:00:00
8:00 AM,-7.1,-11.7,80,30.39,-9999.0,North,28.8,-,N/A,,Unknown,0,2013-01-21 15:00:00
9:00 AM,-6.9,-11.9,79,30.39,-9999.0,North,9.2,-,N/A,,Unknown,0,2013-01-21 16:00:00
10:00 AM,-6.5,-11.4,79,30.40,-9999.0,North,34.5,-,N/A,,Unknown,0,2013-01-21 17:00:00
11:00 AM,-6,-11,68,30.43,,Calm,Calm,,,,,300,2013-01-21 18:00:00
11:00 AM,-5.8,-11.0,78,30.43,-9999.0,North,34.5,-,N/A,,Unknown,0,2013-01-21 18:00:00
12:00 PM,-4.9,-10.5,77,30.43,-9999.0,North,28.8,-,N/A,,Unknown,0,2013-01-21 19:00:00
1:00 PM,-4.2,-10.5,74,30.44,-9999.0,North,27.6,-,N/A,,Unknown,0,2013-01-21 20:00:00
2:00 PM,-3.5,-9.4,76,30.45,-9999.0,North,8.1,-,N/A,,Unknown,0,2013-01-21 21:00:00
3:00 PM,-3.1,-9.0,76,30.44,-9999.0,North,6.9,-,N/A,,Unknown,0,2013-01-21 22:00:00
4:00 PM,-2.7,-8.5,76,30.45,-9999.0,North,39.1,-,N/A,,Unknown,0,2013-01-21 23:00:00
5:00 PM,-3,-8,69,30.46,,Calm,Calm,,,,,10,2013-01-22 00:00:00
5:00 PM,-2.7,-8.0,78,30.46,-9999.0,North,1.2,-,N/A,,Unknown,0,2013-01-22 00:00:00
6:00 PM,-2.7,-8.0,78,30.45,-9999.0,North,6.9,-,N/A,,Unknown,0,2013-01-22 01:00:00
7:00 PM,-2.6,-7.4,80,30.45,-9999.0,North,21.9,-,N/A,,Unknown,0,2013-01-22 02:00:00
8:00 PM,-2.4,-7.4,79,30.47,-9999.0,North,39.1,-,N/A,,Unknown,0,2013-01-22 03:00:00
9:00 PM,-2.4,-7.1,80,30.46,-9999.0,North,10.4,-,N/A,,Unknown,0,2013-01-22 04:00:00
10:00 PM,-2.2,-6.7,81,30.47,-9999.0,North,6.9,-,N/A,,Unknown,0,2013-01-22 05:00:00
11:00 PM,-2,-7,71,30.48,,Calm,Calm,,,,,300,2013-01-22 06:00:00
11:00 PM,-2.0,-6.7,80,30.48,-9999.0,North,34.5,-,N/A,,Unknown,0,2013-01-22 06:00:00